QPF
0.01 0.01 0.01 0.01 0.02 0.02 0.03 0.03 0.03 0.04 0.05 0.06 0.07 0.08 0.09 0.09 0.08 0.08 0.07 0.06 0.04 0.02 0.01 0.01 0.00 0.00 0.00 0.00 0.01 0.01 0.02 0.04 0.03 0.03 0.04 0.06 0.08 0.07 0.06 0.05 0.05 0.05 0.06
0.00 0.00 0.00 0.00 0.01 0.01 0.01 0.02 0.02 0.02 0.03 0.03 0.04 0.05 0.06 0.07 0.08 0.09 0.07 0.06 0.05 0.04 0.03 0.02 0.01 0.01 0.01 0.00 0.01 0.01 0.03 0.03 0.03 0.03 0.04 0.05 0.05 0.06 0.06 0.06 0.05 0.04 0.04
0.00 0.00 0.00 0.00 0.00 0.00 0.00 0.01 0.01 0.01 0.02 0.02 0.03 0.03 0.04 0.05 0.06 0.07 0.07 0.06 0.06 0.05 0.04 0.04 0.03 0.02 0.01 0.00 0.00 0.01 0.02 0.02 0.04 0.04 0.04 0.05 0.06 0.07 0.07 0.08 0.07 0.06 0.04
0.00 0.00 0.00 0.00 0.00 0.00 0.00 0.00 0.00 0.01 0.01 0.01 0.02 0.02 0.03 0.03 0.05 0.06 0.07 0.08 0.06 0.05 0.04 0.03 0.02 0.01 0.01 0.00 0.00 0.01 0.02 0.02 0.03 0.04 0.05 0.06 0.07 0.07 0.08 0.10 0.11 0.09 0.06
0.00 0.00 0.00 0.00 0.00 0.00 0.00 0.00 0.00 0.00 0.00 0.01 0.01 0.01 0.02 0.03 0.04 0.06 0.07 0.08 0.07 0.06 0.04 0.03 0.02 0.02 0.01 0.01 0.01 0.01 0.02 0.01 0.02 0.03 0.04 0.06 0.08 0.10 0.10 0.10 0.10 0.10 0.09
0.00 0.00 0.00 0.00 0.00 0.00 0.00 0.00 0.00 0.00 0.00 0.00 0.01 0.01 0.01 0.02 0.03 0.05 0.07 0.08 0.09 0.08 0.05 0.03 0.02 0.02 0.01 0.01 0.00 0.01 0.01 0.01 0.02 0.03 0.03 0.05 0.06 0.08 0.09 0.09 0.09 0.08 0.10
0.00 0.00 0.00 0.00 0.00 0.00 0.00 0.00 0.00 0.00 0.00 0.00 0.00 0.00 0.01 0.01 0.02 0.04 0.05 0.07 0.08 0.08 0.07 0.05 0.03 0.01 0.01 0.00 0.00 0.01 0.01 0.01 0.02 0.03 0.03 0.04 0.06 0.07 0.09 0.08 0.07 0.07 0.08
0.00 0.00 0.00 0.00 0.00 0.00 0.00 0.00 0.00 0.00 0.00 0.00 0.00 0.00 0.00 0.01 0.01 0.02 0.04 0.05 0.07 0.08 0.08 0.06 0.04 0.02 0.01 0.01 0.01 0.01 0.01 0.01 0.02 0.03 0.04 0.05 0.07 0.09 0.12 0.11 0.08 0.08 0.09
0.00 0.00 0.00 0.00 0.00 0.00 0.00 0.00 0.00 0.01 0.00 0.00 0.00 0.00 0.00 0.01 0.01 0.02 0.03 0.04 0.07 0.08 0.10 0.09 0.07 0.03 0.02 0.01 0.01 0.01 0.01 0.01 0.03 0.05 0.07 0.08 0.11 0.14 0.12 0.11 0.10 0.09 0.10
0.00 0.00 0.00 0.01 0.01 0.01 0.00 0.00 0.01 0.01 0.00 0.00 0.00 0.00 0.01 0.01 0.01 0.01 0.03 0.04 0.07 0.10 0.11 0.12 0.11 0.06 0.04 0.03 0.01 0.01 0.02 0.02 0.02 0.04 0.06 0.08 0.10 0.12 0.11 0.08 0.08 0.09 0.09
0.01 0.01 0.01 0.01 0.01 0.01 0.01 0.01 0.01 0.01 0.00 0.00 0.00 0.00 0.01 0.01 0.01 0.01 0.02 0.04 0.07 0.13 0.15 0.15 0.13 0.11 0.06 0.04 0.03 0.02 0.02 0.02 0.03 0.04 0.05 0.07 0.08 0.09 0.08 0.07 0.06 0.06 0.07
0.02 0.02 0.01 0.01 0.01 0.01 0.01 0.01 0.02 0.02 0.01 0.01 0.01 0.01 0.01 0.01 0.01 0.01 0.02 0.04 0.06 0.13 0.20 0.22 0.16 0.14 0.09 0.06 0.04 0.03 0.03 0.04 0.04 0.05 0.06 0.06 0.07 0.08 0.08 0.07 0.07 0.06 0.04
0.03 0.02 0.01 0.01 0.01 0.01 0.01 0.01 0.02 0.02 0.02 0.01 0.02 0.02 0.02 0.02 0.02 0.02 0.03 0.05 0.08 0.13 0.21 0.28 0.24 0.18 0.12 0.07 0.05 0.05 0.04 0.05 0.05 0.06 0.06 0.06 0.06 0.06 0.06 0.07 0.07 0.06 0.05
0.03 0.02 0.02 0.02 0.02 0.01 0.02 0.02 0.02 0.02 0.02 0.02 0.03 0.03 0.02 0.02 0.02 0.03 0.04 0.06 0.11 0.14 0.22 0.30 0.30 0.21 0.13 0.08 0.05 0.05 0.05 0.05 0.06 0.05 0.06 0.06 0.06 0.05 0.05 0.05 0.05 0.05 0.05
0.04 0.03 0.03 0.03 0.03 0.02 0.02 0.02 0.02 0.02 0.02 0.01 0.02 0.02 0.02 0.02 0.02 0.04 0.06 0.08 0.12 0.16 0.22 0.29 0.33 0.26 0.15 0.09 0.06 0.05 0.06 0.06 0.06 0.04 0.04 0.06 0.06 0.05 0.04 0.04 0.04 0.03 0.03
0.06 0.05 0.04 0.04 0.04 0.03 0.03 0.02 0.02 0.01 0.01 0.00 0.01 0.01 0.01 0.01 0.02 0.03 0.05 0.10 0.13 0.17 0.22 0.25 0.29 0.29 0.18 0.09 0.06 0.05 0.05 0.05 0.04 0.03 0.03 0.04 0.04 0.04 0.04 0.04 0.04 0.04 0.03
0.07 0.05 0.05 0.04 0.04 0.04 0.03 0.02 0.02 0.01 0.01 0.00 0.00 0.00 0.00 0.01 0.02 0.04 0.06 0.11 0.15 0.16 0.19 0.22 0.24 0.23 0.18 0.10 0.05 0.04 0.04 0.04 0.04 0.03 0.03 0.02 0.02 0.03 0.03 0.03 0.03 0.03 0.03
0.06 0.05 0.05 0.04 0.03 0.03 0.03 0.03 0.03 0.02 0.02 0.01 0.01 0.01 0.01 0.01 0.03 0.04 0.07 0.11 0.14 0.15 0.18 0.21 0.22 0.18 0.14 0.09 0.05 0.03 0.03 0.03 0.02 0.02 0.02 0.02 0.01 0.02 0.02 0.02 0.02 0.02 0.02
0.04 0.03 0.03 0.03 0.02 0.02 0.02 0.02 0.02 0.03 0.02 0.02 0.02 0.03 0.02 0.02 0.03 0.04 0.07 0.10 0.11 0.12 0.14 0.19 0.19 0.15 0.11 0.07 0.04 0.03 0.03 0.02 0.01 0.01 0.01 0.01 0.01 0.01 0.01 0.01 0.01 0.01 0.01
0.04 0.04 0.04 0.03 0.03 0.02 0.02 0.02 0.03 0.03 0.03 0.03 0.04 0.04 0.03 0.03 0.03 0.04 0.07 0.08 0.08 0.09 0.10 0.13 0.16 0.13 0.09 0.06 0.05 0.03 0.02 0.01 0.01 0.01 0.01 0.01 0.01 0.01 0.01 0.01 0.01 0.00 0.00
0.04 0.04 0.04 0.03 0.02 0.02 0.03 0.04 0.04 0.04 0.04 0.04 0.04 0.04 0.03 0.03 0.03 0.04 0.05 0.06 0.06 0.07 0.07 0.09 0.11 0.10 0.07 0.05 0.04 0.02 0.01 0.01 0.01 0.00 0.00 0.00 0.00 0.01 0.01 0.00 0.00 0.00 0.00
0.05 0.05 0.04 0.04 0.04 0.04 0.05 0.06 0.06 0.04 0.04 0.04 0.05 0.04 0.03 0.03 0.03 0.04 0.05 0.04 0.04 0.03 0.04 0.06 0.07 0.07 0.05 0.03 0.03 0.02 0.01 0.01 0.01 0.00 0.00 0.00 0.00 0.00 0.00 0.00 0.00 0.00 0.00
0.06 0.06 0.05 0.05 0.05 0.06 0.07 0.05 0.05 0.05 0.04 0.04 0.03 0.03 0.03 0.03 0.03 0.04 0.04 0.03 0.02 0.02 0.02 0.04 0.04 0.04 0.04 0.03 0.02 0.02 0.01 0.01 0.00 0.00 0.00 0.00 0.00 0.00 0.00 0.00 0.00 0.00 0.00
0.06 0.06 0.06 0.05 0.05 0.06 0.07 0.06 0.05 0.06 0.06 0.06 0.04 0.03 0.03 0.02 0.03 0.03 0.03 0.02 0.02 0.01 0.01 0.02 0.02 0.02 0.03 0.02 0.01 0.01 0.00 0.00 0.00 0.00 0.00 0.00 0.00 0.00 0.00 0.00 0.00 0.00 0.00
0.07 0.06 0.06 0.05 0.05 0.06 0.08 0.09 0.07 0.05 0.04 0.03 0.04 0.03 0.02 0.02 0.01 0.02 0.02 0.02 0.01 0.01 0.01 0.01 0.01 0.01 0.01 0.01 0.01 0.01 0.00 0.00 0.00 0.00 0.00 0.00 0.00 0.00 0.00 0.00 0.00 0.00 0.00
0.08 0.08 0.07 0.07 0.07 0.06 0.07 0.08 0.08 0.06 0.04 0.03 0.03 0.02 0.02 0.01 0.01 0.01 0.01 0.01 0.01 0.01 0.00 0.00 0.00 0.00 0.01 0.01 0.01 0.00 0.00 0.00 0.00 0.00 0.00 0.00 0.00 0.00 0.00 0.00 0.00 0.00 0.00
MSLP
1011.23 1011.15 1011.09 1011.02 1010.94 1010.83 1010.69 1010.52 1010.33 1010.11 1009.88 1009.65 1009.42 1009.19 1008.97 1008.75 1008.53 1008.33 1008.15 1007.99 1007.88 1007.81 1007.79 1007.82 1007.88 1007.97 1008.06 1008.15 1008.20 1008.21 1008.17 1008.08 1007.96 1007.80 1007.62 1007.43 1007.26 1007.11 1006.99 1006.90 1006.85 1006.85 1006.88
1010.67 1010.59 1010.54 1010.50 1010.45 1010.39 1010.31 1010.19 1010.06 1009.89 1009.71 1009.51 1009.29 1009.07 1008.83 1008.58 1008.33 1008.09 1007.85 1007.64 1007.47 1007.34 1007.25 1007.22 1007.22 1007.26 1007.31 1007.36 1007.41 1007.43 1007.43 1007.41 1007.36 1007.30 1007.24 1007.18 1007.13 1007.11 1007.11 1007.14 1007.19 1007.28 1007.40
1010.00 1009.93 1009.89 1009.86 1009.84 1009.82 1009.78 1009.72 1009.63 1009.52 1009.38 1009.21 1009.02 1008.80 1008.56 1008.30 1008.03 1007.75 1007.48 1007.23 1007.01 1006.84 1006.71 1006.62 1006.58 1006.56 1006.57 1006.59 1006.60 1006.62 1006.63 1006.64 1006.65 1006.67 1006.70 1006.76 1006.85 1006.97 1007.12 1007.31 1007.51 1007.74 1007.98
1009.27 1009.20 1009.16 1009.14 1009.13 1009.13 1009.11 1009.09 1009.04 1008.97 1008.87 1008.75 1008.58 1008.38 1008.15 1007.88 1007.59 1007.30 1007.00 1006.73 1006.49 1006.29 1006.14 1006.02 1005.94 1005.89 1005.86 1005.84 1005.82 1005.80 1005.79 1005.80 1005.83 1005.90 1006.01 1006.17 1006.39 1006.66 1006.98 1007.34 1007.72 1008.12 1008.52
1008.50 1008.42 1008.38 1008.35 1008.34 1008.34 1008.34 1008.33 1008.32 1008.28 1008.22 1008.13 1008.00 1007.81 1007.59 1007.32 1007.03 1006.72 1006.42 1006.14 1005.89 1005.69 1005.53 1005.42 1005.33 1005.26 1005.20 1005.14 1005.08 1005.02 1004.98 1004.96 1004.98 1005.06 1005.22 1005.46 1005.79 1006.19 1006.67 1007.20 1007.76 1008.33 1008.90
1007.73 1007.64 1007.58 1007.54 1007.51 1007.49 1007.49 1007.49 1007.50 1007.50 1007.47 1007.42 1007.31 1007.15 1006.94 1006.67 1006.38 1006.07 1005.77 1005.49 1005.25 1005.06 1004.92 1004.82 1004.74 1004.68 1004.61 1004.53 1004.43 1004.33 1004.24 1004.19 1004.18 1004.26 1004.43 1004.72 1005.13 1005.64 1006.25 1006.92 1007.64 1008.38 1009.10
1006.99 1006.89 1006.80 1006.73 1006.67 1006.63 1006.62 1006.63 1006.65 1006.68 1006.68 1006.66 1006.58 1006.44 1006.24 1005.99 1005.69 1005.38 1005.08 1004.81 1004.59 1004.43 1004.31 1004.25 1004.20 1004.16 1004.11 1004.03 1003.92 1003.79 1003.67 1003.58 1003.54 1003.60 1003.78 1004.09 1004.53 1005.12 1005.81 1006.59 1007.42 1008.27 1009.11
1006.31 1006.19 1006.07 1005.96 1005.87 1005.80 1005.78 1005.79 1005.82 1005.87 1005.91 1005.91 1005.86 1005.75 1005.56 1005.31 1005.02 1004.71 1004.41 1004.15 1003.95 1003.82 1003.75 1003.73 1003.73 1003.73 1003.72 1003.66 1003.57 1003.45 1003.32 1003.21 1003.16 1003.20 1003.37 1003.68 1004.15 1004.75 1005.49 1006.31 1007.20 1008.12 1009.02
1005.71 1005.56 1005.40 1005.25 1005.12 1005.04 1004.99 1005.00 1005.05 1005.11 1005.18 1005.21 1005.19 1005.09 1004.92 1004.68 1004.39 1004.08 1003.79 1003.54 1003.37 1003.26 1003.24 1003.27 1003.33 1003.39 1003.44 1003.44 1003.39 1003.31 1003.21 1003.12 1003.08 1003.13 1003.29 1003.60 1004.06 1004.66 1005.38 1006.20 1007.09 1008.00 1008.90
1005.18 1004.99 1004.79 1004.61 1004.45 1004.33 1004.27 1004.28 1004.33 1004.41 1004.49 1004.54 1004.54 1004.46 1004.31 1004.08 1003.80 1003.50 1003.22 1002.99 1002.84 1002.77 1002.78 1002.86 1002.99 1003.13 1003.25 1003.33 1003.37 1003.36 1003.33 1003.30 1003.31 1003.39 1003.57 1003.88 1004.32 1004.88 1005.56 1006.32 1007.14 1007.99 1008.84
1004.68 1004.46 1004.23 1004.01 1003.82 1003.68 1003.61 1003.60 1003.65 1003.74 1003.83 1003.90 1003.91 1003.85 1003.71 1003.50 1003.24 1002.96 1002.70 1002.49 1002.36 1002.32 1002.38 1002.51 1002.70 1002.92 1003.13 1003.31 1003.45 1003.55 1003.62 1003.69 1003.78 1003.92 1004.14 1004.46 1004.88 1005.40 1006.01 1006.68 1007.40 1008.13 1008.87
1004.20 1003.95 1003.69 1003.45 1003.24 1003.08 1002.99 1002.97 1003.00 1003.08 1003.17 1003.24 1003.27 1003.22 1003.11 1002.92 1002.69 1002.44 1002.21 1002.03 1001.93 1001.93 1002.03 1002.21 1002.45 1002.74 1003.04 1003.32 1003.58 1003.81 1004.01 1004.20 1004.40 1004.63 1004.91 1005.26 1005.67 1006.14 1006.66 1007.23 1007.81 1008.41 1009.02
1003.71 1003.44 1003.17 1002.91 1002.68 1002.51 1002.40 1002.35 1002.37 1002.43 1002.50 1002.57 1002.60 1002.57 1002.48 1002.33 1002.14 1001.94 1001.75 1001.62 1001.56 1001.59 1001.72 1001.94 1002.24 1002.58 1002.96 1003.34 1003.71 1004.06 1004.39 1004.71 1005.04 1005.38 1005.73 1006.12 1006.53 1006.96 1007.41 1007.86 1008.32 1008.78 1009.24
1003.21 1002.93 1002.65 1002.39 1002.16 1001.97 1001.84 1001.77 1001.76 1001.79 1001.84 1001.90 1001.93 1001.92 1001.87 1001.76 1001.63 1001.49 1001.36 1001.27 1001.26 1001.33 1001.49 1001.73 1002.06 1002.44 1002.87 1003.32 1003.78 1004.24 1004.70 1005.15 1005.59 1006.03 1006.47 1006.90 1007.33 1007.73 1008.12 1008.49 1008.83 1009.17 1009.51
1002.71 1002.43 1002.16 1001.91 1001.68 1001.48 1001.33 1001.24 1001.19 1001.19 1001.23 1001.27 1001.30 1001.32 1001.30 1001.26 1001.19 1001.12 1001.06 1001.04 1001.07 1001.17 1001.35 1001.61 1001.94 1002.34 1002.79 1003.28 1003.80 1004.34 1004.89 1005.43 1005.98 1006.51 1007.02 1007.50 1007.95 1008.35 1008.70 1009.00 1009.27 1009.51 1009.75
1002.23 1001.97 1001.72 1001.48 1001.26 1001.06 1000.90 1000.79 1000.71 1000.69 1000.70 1000.73 1000.78 1000.82 1000.86 1000.88 1000.89 1000.90 1000.92 1000.96 1001.03 1001.16 1001.35 1001.60 1001.92 1002.30 1002.74 1003.23 1003.77 1004.34 1004.94 1005.55 1006.16 1006.76 1007.33 1007.86 1008.33 1008.73 1009.07 1009.35 1009.57 1009.77 1009.96
1001.78 1001.55 1001.32 1001.11 1000.91 1000.72 1000.55 1000.43 1000.34 1000.30 1000.29 1000.33 1000.39 1000.48 1000.57 1000.67 1000.76 1000.85 1000.94 1001.04 1001.16 1001.30 1001.48 1001.71 1001.99 1002.33 1002.73 1003.19 1003.71 1004.28 1004.88 1005.52 1006.16 1006.80 1007.41 1007.97 1008.46 1008.89 1009.23 1009.51 1009.74 1009.93 1010.11
1001.39 1001.18 1000.98 1000.79 1000.60 1000.43 1000.27 1000.14 1000.05 1000.01 1000.01 1000.06 1000.16 1000.29 1000.44 1000.61 1000.78 1000.95 1001.11 1001.26 1001.41 1001.56 1001.73 1001.93 1002.16 1002.44 1002.77 1003.18 1003.64 1004.18 1004.76 1005.38 1006.03 1006.68 1007.30 1007.88 1008.40 1008.84 1009.22 1009.52 1009.78 1010.00 1010.21
1001.04 1000.83 1000.65 1000.48 1000.32 1000.16 1000.01 999.90 999.81 999.78 999.80 999.88 1000.02 1000.20 1000.42 1000.66 1000.90 1001.14 1001.36 1001.56 1001.73 1001.88 1002.03 1002.19 1002.36 1002.58 1002.84 1003.18 1003.58 1004.06 1004.60 1005.19 1005.82 1006.45 1007.07 1007.66 1008.19 1008.66 1009.07 1009.42 1009.72 1010.00 1010.27
1000.69 1000.48 1000.31 1000.14 999.99 999.84 999.72 999.62 999.56 999.55 999.61 999.73 999.91 1000.15 1000.43 1000.74 1001.04 1001.34 1001.60 1001.83 1002.02 1002.17 1002.30 1002.41 1002.54 1002.69 1002.90 1003.17 1003.51 1003.93 1004.42 1004.97 1005.56 1006.17 1006.78 1007.36 1007.90 1008.40 1008.84 1009.23 1009.59 1009.93 1010.27
1000.33 1000.10 999.90 999.73 999.57 999.44 999.32 999.25 999.22 999.25 999.34 999.51 999.75 1000.04 1000.38 1000.74 1001.10 1001.43 1001.73 1001.98 1002.18 1002.33 1002.44 1002.53 1002.61 1002.73 1002.88 1003.10 1003.40 1003.77 1004.21 1004.72 1005.28 1005.86 1006.45 1007.03 1007.58 1008.09 1008.56 1008.99 1009.40 1009.80 1010.20
999.95 999.67 999.43 999.23 999.06 998.92 998.82 998.76 998.76 998.82 998.96 999.18 999.46 999.81 1000.19 1000.59 1000.98 1001.35 1001.67 1001.93 1002.13 1002.28 1002.38 1002.45 1002.52 1002.61 1002.75 1002.94 1003.21 1003.55 1003.97 1004.46 1004.99 1005.55 1006.12 1006.68 1007.23 1007.75 1008.23 1008.70 1009.15 1009.59 1010.03
999.56 999.21 998.92 998.68 998.48 998.32 998.22 998.18 998.20 998.30 998.47 998.72 999.05 999.42 999.84 1000.26 1000.68 1001.06 1001.39 1001.66 1001.86 1002.01 1002.11 1002.18 1002.25 1002.34 1002.47 1002.67 1002.93 1003.27 1003.68 1004.15 1004.66 1005.21 1005.77 1006.32 1006.85 1007.37 1007.86 1008.33 1008.79 1009.25 1009.72
999.24 998.82 998.46 998.17 997.93 997.75 997.63 997.59 997.63 997.74 997.94 998.22 998.56 998.96 999.39 999.82 1000.24 1000.62 1000.95 1001.21 1001.42 1001.56 1001.67 1001.75 1001.83 1001.94 1002.09 1002.30 1002.58 1002.93 1003.34 1003.81 1004.32 1004.85 1005.39 1005.92 1006.44 1006.93 1007.41 1007.88 1008.33 1008.79 1009.24
999.07 998.58 998.16 997.81 997.53 997.32 997.19 997.14 997.17 997.29 997.50 997.78 998.13 998.53 998.95 999.37 999.78 1000.15 1000.46 1000.72 1000.91 1001.06 1001.17 1001.27 1001.37 1001.50 1001.68 1001.91 1002.21 1002.57 1002.99 1003.46 1003.96 1004.47 1004.99 1005.50 1005.99 1006.46 1006.91 1007.34 1007.77 1008.20 1008.62
999.14 998.60 998.13 997.74 997.42 997.18 997.03 996.96 996.99 997.10 997.30 997.57 997.90 998.28 998.68 999.07 999.45 999.79 1000.08 1000.31 1000.50 1000.64 1000.76 1000.87 1000.99 1001.14 1001.34 1001.59 1001.90 1002.27 1002.69 1003.15 1003.63 1004.12 1004.61 1005.08 1005.53 1005.95 1006.36 1006.75 1007.14 1007.52 1007.90
Thickness
5637 5635 5632 5630 5629 5628 5627 5627 5629 5630 5632 5635 5638 5640 5643 5647 5651 5654 5657 5660 5662 5665 5668 5670 5672 5674 5674 5675 5675 5675 5675 5675 5675 5678 5679 5680 5681 5681 5682 5683 5684 5684 5685
5622 5619 5616 5614 5612 5611 5610 5611 5612 5614 5616 5618 5620 5624 5627 5632 5636 5640 5643 5648 5652 5655 5659 5661 5664 5668 5669 5670 5670 5671 5672 5672 5672 5673 5674 5674 5674 5675 5675 5676 5676 5676 5676
5606 5602 5599 5597 5594 5593 5593 5594 5595 5596 5598 5600 5602 5605 5610 5614 5619 5624 5630 5635 5641 5646 5650 5653 5657 5660 5662 5663 5665 5666 5667 5669 5670 5669 5669 5669 5669 5669 5668 5668 5668 5667 5668
5590 5585 5582 5579 5578 5576 5576 5575 5576 5577 5579 5581 5584 5587 5592 5597 5602 5608 5614 5621 5628 5634 5640 5645 5650 5654 5656 5658 5660 5661 5663 5664 5665 5665 5665 5664 5663 5663 5663 5661 5659 5659 5658
5575 5571 5567 5565 5563 5561 5559 5559 5559 5560 5561 5563 5565 5569 5573 5579 5586 5592 5598 5606 5613 5620 5628 5635 5641 5647 5651 5653 5655 5656 5657 5658 5660 5661 5660 5659 5659 5658 5657 5655 5652 5650 5648
5563 5560 5557 5553 5550 5548 5547 5546 5546 5546 5547 5547 5549 5552 5556 5563 5570 5575 5582 5590 5598 5606 5614 5622 5630 5637 5642 5646 5650 5652 5653 5655 5656 5657 5656 5656 5655 5655 5653 5651 5647 5645 5641
5553 5551 5547 5544 5541 5540 5539 5538 5537 5537 5537 5537 5538 5540 5543 5547 5553 5559 5567 5574 5583 5592 5601 5609 5618 5627 5633 5637 5642 5645 5648 5651 5653 5654 5653 5653 5652 5652 5650 5645 5643 5641 5639
5544 5541 5539 5536 5534 5533 5532 5531 5531 5531 5530 5531 5532 5533 5534 5538 5542 5547 5553 5560 5569 5578 5587 5596 5605 5615 5622 5627 5632 5636 5640 5643 5647 5648 5650 5650 5650 5648 5647 5644 5640 5634 5630
5535 5532 5530 5528 5527 5526 5525 5524 5524 5524 5525 5525 5527 5528 5529 5531 5535 5538 5543 5547 5555 5565 5575 5584 5594 5604 5613 5619 5624 5628 5631 5635 5639 5642 5643 5644 5643 5642 5640 5636 5632 5629 5623
5526 5524 5522 5520 5518 5518 5518 5518 5519 5519 5520 5521 5522 5523 5525 5527 5530 5532 5535 5538 5545 5553 5563 5573 5584 5594 5602 5609 5616 5620 5624 5627 5631 5633 5634 5635 5635 5634 5633 5632 5630 5625 5620
5516 5514 5513 5511 5510 5510 5510 5511 5512 5512 5513 5515 5516 5519 5520 5523 5526 5528 5530 5531 5536 5543 5552 5562 5573 5583 5591 5600 5607 5613 5618 5621 5623 5625 5626 5627 5626 5626 5625 5625 5624 5623 5618
5507 5505 5504 5503 5502 5505 5504 5504 5505 5506 5506 5508 5510 5512 5515 5518 5521 5524 5526 5527 5530 5535 5543 5553 5563 5572 5581 5589 5597 5604 5609 5612 5615 5617 5618 5619 5619 5619 5618 5618 5617 5616 5616
5499 5497 5496 5495 5495 5495 5495 5496 5498 5499 5500 5503 5504 5506 5509 5513 5517 5520 5521 5523 5525 5528 5536 5545 5554 5563 5571 5579 5587 5594 5600 5604 5607 5609 5610 5610 5612 5612 5611 5609 5608 5608 5607
5491 5489 5488 5488 5488 5488 5488 5489 5491 5493 5495 5498 5500 5502 5504 5507 5511 5513 5515 5517 5519 5522 5528 5537 5545 5554 5564 5572 5578 5585 5592 5597 5600 5601 5602 5602 5603 5603 5603 5602 5601 5599 5597
5485 5483 5482 5482 5482 5482 5482 5484 5486 5489 5492 5494 5497 5499 5501 5503 5508 5511 5511 5512 5515 5518 5523 5530 5538 5548 5556 5565 5572 5578 5583 5588 5591 5593 5594 5595 5595 5595 5594 5594 5594 5593 5591
5480 5479 5478 5477 5477 5478 5478 5480 5483 5486 5489 5492 5495 5497 5500 5503 5506 5507 5508 5509 5510 5513 5518 5526 5535 5544 5553 5561 5568 5572 5577 5581 5584 5587 5588 5589 5589 5588 5587 5587 5587 5586 5584
5478 5477 5475 5475 5474 5474 5475 5476 5478 5482 5485 5489 5492 5495 5497 5500 5501 5503 5503 5504 5506 5510 5517 5525 5532 5541 5550 5558 5564 5569 5572 5576 5579 5582 5582 5583 5583 5582 5582 5581 5580 5580 5579
5479 5478 5476 5474 5473 5472 5473 5474 5476 5478 5481 5485 5488 5492 5495 5496 5497 5499 5500 5502 5505 5509 5517 5523 5531 5539 5548 5555 5561 5565 5569 5572 5574 5576 5577 5578 5578 5578 5577 5576 5576 5576 5575
5481 5479 5478 5476 5475 5474 5474 5474 5476 5478 5480 5483 5485 5488 5491 5492 5493 5494 5497 5502 5506 5511 5517 5523 5531 5538 5545 5553 5559 5564 5567 5569 5571 5573 5573 5574 5574 5575 5574 5574 5573 5573 5573
5486 5485 5483 5480 5479 5478 5477 5476 5477 5479 5481 5483 5485 5487 5488 5489 5491 5493 5496 5501 5507 5512 5518 5524 5532 5539 5545 5552 5558 5562 5564 5567 5569 5570 5571 5571 5572 5573 5573 5572 5572 5571 5570
5491 5488 5488 5485 5483 5481 5481 5480 5481 5482 5484 5485 5487 5489 5490 5492 5494 5496 5500 5504 5510 5515 5521 5527 5534 5540 5547 5552 5557 5561 5564 5566 5568 5570 5570 5571 5572 5572 5572 5572 5571 5570 5569
5496 5494 5491 5489 5487 5486 5485 5485 5485 5486 5488 5489 5490 5491 5491 5495 5497 5501 5504 5509 5513 5519 5525 5531 5537 5543 5549 5554 5559 5562 5565 5567 5569 5570 5571 5572 5572 5572 5571 5570 5569 5568 5567
5504 5501 5499 5497 5494 5493 5491 5491 5490 5491 5492 5493 5495 5495 5496 5499 5502 5506 5511 5515 5518 5524 5530 5536 5542 5547 5553 5558 5563 5566 5568 5570 5572 5573 5573 5573 5572 5571 5571 5570 5569 5567 5565
5512 5510 5507 5505 5502 5501 5499 5498 5498 5498 5498 5499 5500 5502 5503 5506 5509 5513 5517 5521 5526 5530 5536 5541 5547 5552 5557 5561 5566 5570 5572 5574 5575 5575 5576 5575 5573 5572 5571 5569 5568 5567 5565
5521 5519 5517 5514 5511 5510 5508 5507 5506 5506 5507 5508 5509 5511 5513 5515 5518 5521 5525 5529 5533 5538 5543 5548 5553 5558 5562 5565 5569 5572 5574 5576 5577 5577 5577 5576 5574 5572 5571 5569 5567 5565 5563
5530 5528 5527 5524 5522 5520 5518 5517 5517 5517 5517 5518 5519 5520 5522 5524 5527 5530 5533 5537 5541 5545 5550 5555 5560 5564 5567 5569 5572 5574 5575 5576 5577 5578 5578 5576 5574 5572 5570 5568 5566 5564 5562